Volver al catálogo

CORVUS BC1

ActivoCienciaSSO
NORAD 42847·PAYLOAD·🇺🇸 United States

Lanzado Jul 14, 2017 desde Baikonur Cosmodrome

Loading…

Próximos Pases (próximas 24 horas)

TLE

ActualizadoSource: Space-Track

Época: Sep 14, 2026, 09:08 UTC

1 42847U 17042Y   26257.38108692  .00002773  00000-0  18931-3 0  9992
2 42847  97.4212  56.2233 0012789 137.5243 222.6977 15.06916439500526

Sigue CORVUS BC1 en tiempo real con AllMySat

Download on the App Store